Miscellaneous Local Product
Issued by NWS North Platte, NE

Home | Current Version | Previous Version | Text Only | Print | Product List | Glossary On
Versions: 1 2 3 4 5 6 7 8 9 10 11 12 13 14 15 16 17 18 19 20 21 22 23 24 25 26 27 28 29 30 31 32 33 34 35 36 37 38 39 40 41 42 43 44 45 46 47 48 49 50
413
AXUS43 KLBF 261510
MISLBF


WESTERN AND NORTH CENTRAL NEBRASKA HOURLY WEATHER ROUNDUP
NATIONAL WEATHER SERVICE NORTH PLATTE NE
1000 AM CDT MON SEP 26 2016

NOTE: "FAIR" INDICATES FEW OR NO CLOUDS BELOW 12,000 FEET WITH NO
SIGNIFICANT WEATHER AND/OR OBSTRUCTIONS TO VISIBILITY.

NOTE: STATIONS NOT REPORTING VARIABLES SUCH AS SKY/WEATHER OR
PRESSURE ARE PROVIDED BY RAWS AND APRS NETWORKS AND ARE NOT UNDER
NATIONAL WEATHER SERVICE QUALITY CONTROL.

...OBSERVATIONS IN AND NEAR THE EASTERN PANHANDLE OF NEBRASKA...

CITY           SKY/WX    TMP DP  RH WIND       PRES   REMARKS
PINE RIDGE     SUNNY     53  36  52 W7        30.32S
CHADRON        SUNNY     54  38  54 W8        30.33R
ALLIANCE       SUNNY     52  41  66 W9        30.34S
SIDNEY         SUNNY     54  38  54 W14       30.37F
CRESCENT LAKE    N/A     54  39  56 W6          N/A
$$

...OBSERVATIONS IN NORTHERN NEBRASKA AND FAR SOUTHERN SOUTH DAKOTA...

CITY           SKY/WX    TMP DP  RH WIND       PRES   REMARKS
WINNER         FAIR      63  39  41 W6        30.23F
VALENTINE      SUNNY     57  31  37 W16       30.26F
THEDFORD       SUNNY     60  34  38 W13       30.30F
AINSWORTH      SUNNY     60  36  41 W13       30.26F
O`NEILL        SUNNY     60  36  41 W12       30.25F
ORD            SUNNY     57  40  52 VRB3      30.28F
BROKEN BOW     SUNNY     59  33  37 W13       30.30S
BUTTE            N/A     59  40  48 SW8G15      N/A
HALSEY           N/A     56  34  43 SW3         N/A
EWING            N/A     59  41  51 W9          N/A
$$

...OBSERVATIONS IN SOUTHWEST NEBRASKA AND FAR NORTHEAST COLORADO...

CITY           SKY/WX    TMP DP  RH WIND       PRES   REMARKS
WRAY           FAIR      46  34  61 SW6       30.39
HOLYOKE        FAIR      59  41  51 W6        30.37S
IMPERIAL       SUNNY     54  36  50 W8        30.36F
OGALLALA       SUNNY     52  40  63 W6        30.35F
NORTH PLATTE   SUNNY     52  38  58 W9        30.34F
MCCOOK         SUNNY     52  40  63 W7        30.36F
LEXINGTON      SUNNY     54  38  54 W6        30.32F
STAPLETON        N/A     58  37  46 CALM        N/A
GOTHENBURG       N/A     44  33  65 W3          N/A
CALLAWAY         N/A     49  36  60 W8          N/A
$$

...OBSERVATIONS IN CENTRAL LINCOLN COUNTY AREA...

CITY           SKY/WX    TMP DP  RH WIND       PRES   REMARKS
N.P. AIRPORT   SUNNY     52  38  58 W9        30.34F
N.P. DOWNTOWN    N/A     53  41  64 CALM        N/A
N.P. SOUTHEAST   N/A     54  39  57 CALM        N/A
N.P. HILLCREST   N/A     49  40  72 W3          N/A
$$

...SOME OBSERVATIONS FROM AROUND THE REGION...

CITY           SKY/WX    TMP DP  RH WIND       PRES   REMARKS
DENVER         SUNNY     56  32  40 W9        30.43S
LARAMIE        SUNNY     44  33  65 SE5       30.49R
CHEYENNE       SUNNY     54  35  48 N5        30.44S
SCOTTSBLUFF    SUNNY     49  40  71 NW8       30.37F
RAPID CITY     SUNNY     61  40  45 W8        30.27F
BISMARCK       SUNNY     52  36  54 W12       30.17F
PIERRE         SUNNY     53  39  59 NW5       30.21R
SIOUX FALLS    MOSUNNY   56  40  55 W13G21    30.16F
OMAHA          SUNNY     60  41  49 NW12      30.24S
GRAND ISLAND   SUNNY     56  37  49 W13       30.30S
KANSAS CITY    SUNNY     58  45  62 W7        30.26S
WICHITA        MOSUNNY   62  45  53 NW3       30.33R
OKLAHOMA CITY  PTSUNNY   64  47  53 N12       30.29R
DALLAS         CLOUDY    69  55  60 NE12      30.16R
AMARILLO       SUNNY     59  41  51 N7        30.42R
DODGE CITY     SUNNY     60  31  33 CALM      30.39S
HAYS           SUNNY     57  37  47 W6        30.36S
GOODLAND       SUNNY     58  30  34 SW9       30.38S
$$




USA.gov is the U.S. government's official web portal to all federal, state and local government web resources and services.